TimeMDT,TemperatureF,Dew PointF,Humidity,Sea Level PressureIn,VisibilityMPH,Wind Direction,Wind SpeedMPH,Gust SpeedMPH,PrecipitationIn,Events,Conditions,WindDirDegrees,DateUTC
12:53 AM,37.0,21.9,54,30.19,10.0,NE,3.5,-,N/A,,Clear,50,2013-04-25 06:53:00
1:53 AM,37.0,21.0,52,30.16,10.0,NE,11.5,-,N/A,,Clear,40,2013-04-25 07:53:00
2:53 AM,37.0,19.0,48,30.13,10.0,NNE,12.7,-,N/A,,Clear,30,2013-04-25 08:53:00
3:53 AM,34.0,19.0,54,30.12,10.0,WSW,3.5,-,N/A,,Clear,250,2013-04-25 09:53:00
4:53 AM,30.0,19.0,64,30.11,10.0,WNW,4.6,-,N/A,,Clear,290,2013-04-25 10:53:00
5:53 AM,26.1,18.0,71,30.12,10.0,Calm,Calm,-,N/A,,Clear,0,2013-04-25 11:53:00
6:53 AM,30.0,21.0,69,30.11,10.0,West,3.5,-,N/A,,Clear,270,2013-04-25 12:53:00
7:53 AM,37.0,21.9,54,30.09,10.0,Calm,Calm,-,N/A,,Clear,0,2013-04-25 13:53:00
8:53 AM,42.1,21.0,43,30.07,10.0,SSE,3.5,-,N/A,,Clear,160,2013-04-25 14:53:00
9:45 AM,48.2,21.2,34,30.10,2.5,Calm,Calm,-,N/A,,Haze,0,2013-04-25 15:45:00
9:53 AM,48.0,21.9,36,30.05,10.0,Calm,Calm,-,N/A,,Clear,0,2013-04-25 15:53:00
10:53 AM,54.0,23.0,30,30.01,10.0,Calm,Calm,-,N/A,,Clear,0,2013-04-25 16:53:00
11:53 AM,59.0,21.0,23,29.97,10.0,South,8.1,-,N/A,,Clear,170,2013-04-25 17:53:00
12:53 PM,60.1,23.0,24,29.94,10.0,South,6.9,-,N/A,,Clear,170,2013-04-25 18:53:00
1:53 PM,64.0,25.0,23,29.88,10.0,ESE,10.4,-,N/A,,Clear,120,2013-04-25 19:53:00
2:53 PM,68.0,28.0,22,29.82,10.0,SSE,8.1,17.3,N/A,,Clear,150,2013-04-25 20:53:00
3:53 PM,72.0,30.9,22,29.76,10.0,SE,9.2,16.1,N/A,,Clear,130,2013-04-25 21:53:00
4:53 PM,73.9,26.1,17,29.74,10.0,West,6.9,17.3,N/A,,Clear,270,2013-04-25 22:53:00
5:53 PM,72.0,25.0,17,29.75,10.0,SW,9.2,-,N/A,,Clear,230,2013-04-25 23:53:00
6:53 PM,69.1,26.1,20,29.78,10.0,NNW,10.4,-,N/A,,Mostly Cloudy,330,2013-04-26 00:53:00
7:53 PM,64.9,28.9,26,29.81,10.0,NW,8.1,-,N/A,,Mostly Cloudy,310,2013-04-26 01:53:00
8:53 PM,61.0,30.0,31,29.84,10.0,Calm,Calm,-,N/A,,Partly Cloudy,0,2013-04-26 02:53:00
9:53 PM,60.1,32.0,35,29.85,10.0,SW,6.9,-,N/A,,Scattered Clouds,220,2013-04-26 03:53:00
10:53 PM,59.0,35.1,41,29.82,10.0,SE,6.9,-,N/A,,Mostly Cloudy,140,2013-04-26 04:53:00
11:53 PM,52.0,34.0,50,29.84,10.0,North,6.9,-,N/A,,Clear,10,2013-04-26 05:53:00